KUIPER-00084 (64830 NORAD) Tracking and Keplerian Element Data

This shows tracking and keplerian element data for the satellite.

Feedback or suggestion? Click here.




ElementValue
Catalog64830
NameKUIPER-00084
Epoch Orbit2345
Epoch Day354.13620569
Epoch Year2025
RAAN297.3483
Inclination51.9016
Eccentricity0.0011859
Argument of Perigee314.2523
Mean Anonmoly45.7465
Mean Motion14.80043501
Decay Rate2.379E-05
L11 64830U 25151Q 25354.13620569 .00002379 00000+0 34005-3 0 9991
L22 64830 51.9016 297.3483 0011859 314.2523 45.7465 14.80043501 23456



Live tracking and technical data element details for KUIPER-00084 (NORAD 64830). KUIPER-00084 can be tracked NOW for your location showing map with azimuth and elevation plus other details from your city location.







IsCatalogInMostPopularTable: catalog: 64830, numindb: 6
Update: records affected: 1



GetName: 64830 KUIPER-00084

Hit Count: updated at: Sat, 11 Apr 2026 21:21:17 GMT